Tracking 19794 objects as of 21-Jul-2019
HD Live streaming from Space Station
objects crossing your sky now

THORAD DELTA 1 DEB

Track THORAD DELTA 1 DEB now!
10-day predictions


NORAD ID: 42592
Int'l Code: 1974-089CW
Perigee: 1,444.7 km
Apogee: 1,498.2 km
Inclination: 101.5 °
Period: 115.2 minutes
Semi major axis: 7842 km
RCS: Unknown
Launch date: November 15, 1974
Source: United States (US)
Launch site: AIR FORCE WESTERN TEST RANGE (AFWTR)

Note: This is SATELLITE DEBRIS
aabbcc
Your satellite tracking list
Your tracking list is empty




NASA's NSSDC Master Catalog

Two Line Element Set (TLE):
1 42592U 74089CW  19200.86220144 -.00000032  00000-0  69458-4 0  9991
2 42592 101.5243 166.2007 0034094  48.4437 311.9550 12.50048549746641
Source of the keplerian elements: AFSPC